Location: Whitehorse
(60.7170°N, 135.0500°W)
Time: 17:26:32
(UTC-08:00)

Envisat - Pass Details

Date: 22 October 2019
Orbit: 764 x 766 km, 98.1° (Epoch: 13 November)

Event Time Altitude Azimuth Distance (km) Brightness Sun altitude
Rises 19:20:15 0° 155° (SSE) 3,227 6.1 -6.9°
Reaches altitude 10° 19:22:32 10° 154° (SSE) 2,304 5.3 -7.1°
Maximum altitude 19:27:37 78° 70° (ENE) 791 3.0 -7.7°
Drops below altitude 10° 19:32:44 10° 344° (NNW) 2,318 5.6 -8.4°
Sets 19:35:03 0° 343° (NNW) 3,248 6.4 -8.6°
